Vertical_Velocity
-0 -1 1 -2 -4 -1 -2 -5 -4 -2 -4 3 -3 -2 1 3 -6 6 2 -0 3 0 2 -1 -1 -2 -1 -1 -2 -3 -5 2 -3 1 1 2 2 -2 -1 2 -3 1 3 -10
-1 -0 -2 -5 -2 -5 1 1 -3 6 4 -8 2 1 -1 2 -1 -1 -3 2 4 5 -3 -2 2 -0 2 5 2 -4 -3 -1 -4 10 1 0 -1 2 3 4 3 -6 3 -12
-1 -2 -5 -2 -3 -2 -4 -6 -3 -3 0 4 7 3 6 1 -2 1 4 2 2 4 -2 7 -5 1 -2 2 3 5 -0 -2 -4 -6 2 3 -1 0 1 4 3 -4 -4 5
1 -2 -5 -3 -1 -4 -2 -2 -1 -7 -4 5 7 7 10 -4 2 3 5 1 10 10 -2 -0 -9 4 2 1 2 1 6 -3 -2 -1 -4 1 -0 -2 6 -2 3 -2 -1 -1
-0 -1 -5 -2 3 -4 -2 -1 -3 -1 3 2 -2 5 7 8 1 17 -3 0 10 7 -4 13 8 2 2 2 0 -1 1 -0 1 -9 -1 0 -3 -0 6 4 1 -5 4 -11
-2 -3 0 -2 -2 -4 -1 0 -2 -1 3 -0 -0 -2 -2 1 11 -4 15 16 2 1 5 4 3 5 5 0 5 5 -0 -1 2 -6 1 -1 -11 -2 -3 -1 1 2 1 2
-2 -2 -2 0 -3 -1 -4 -1 -4 -3 -10 -1 3 -4 -2 -7 -5 -3 -3 0 13 7 4 4 5 1 7 7 -2 4 -2 6 1 -5 1 -2 0 -5 -1 -2 -3 -0 -2 -1
-3 -5 -3 -2 -2 -2 -1 2 0 -3 -15 -2 6 -3 -7 -3 -1 -15 -10 1 3 -1 1 -1 -6 -7 -3 -13 6 1 3 6 1 -5 -0 -0 -7 -6 -6 -5 -6 -1 -3 -4
-1 -2 -5 -3 -4 -2 -4 2 3 1 -10 -0 1 -3 1 -4 -10 -9 -8 0 -3 9 9 5 -1 -5 2 1 -0 7 9 9 2 7 -0 -3 -4 -3 0 -0 -13 -4 -2 -1
-4 -6 -6 -4 -2 -2 -7 -1 2 1 -10 10 2 -3 -2 0 -1 -5 -5 2 -3 4 14 1 3 -13 -3 6 -5 -2 4 4 -11 5 -1 -8 1 -2 1 -1 -3 3 -4 -4
-1 -1 -4 -2 -2 -0 -2 -1 2 6 8 -14 2 16 4 -0 -4 3 -8 -10 17 16 3 6 -3 -8 -4 2 10 -3 -3 -2 -7 12 4 -17 -1 1 -6 2 -5 -8 -4 -3
-6 -3 -3 -2 1 2 5 -13 8 9 10 -24 -2 6 -12 17 10 1 6 -13 -1 11 32 28 22 -2 4 10 -13 7 9 -19 -7 -5 -18 0 -3 -8 5 3 1 1 -2 -5
-1 0 1 -2 -0 -1 6 -3 1 7 -4 -31 11 -14 40 20 6 26 6 -0 3 -41 44 15 18 13 20 7 -10 22 4 7 -5 17 -2 -6 4 2 -0 1 2 -4 -7 -11
2 -0 2 1 -0 -1 7 0 4 7 5 5 -59 18 -30 13 0 0 3 -6 -1 -3 20 -1 -10 -9 18 0 1 24 13 8 4 -8 4 -3 -8 1 8 0 -0 -2 -1 -3
0 0 -1 1 2 0 1 -2 -8 19 35 3 -42 -2 1 -1 -7 -1 14 1 2 -0 12 10 -6 -5 14 -6 16 -0 3 10 -8 -29 1 9 7 19 3 7 4 -1 -2 -2
-0 1 1 3 1 4 6 -30 9 11 14 -13 -41 -19 -19 20 36 11 -4 -6 7 13 6 -14 -7 -13 32 -5 -15 -17 8 -2 8 -3 10 10 8 7 9 4 5 0 -3 -1
-0 1 1 4 4 3 9 -9 0 12 26 7 -17 -16 -16 5 -7 -17 1 36 -17 16 -1 -20 -0 -15 31 28 13 8 -1 16 9 6 4 2 0 -7 1 4 4 -0 2 -1
-2 -2 -1 6 -2 -3 -14 -1 16 32 -6 7 -14 -31 -7 27 2 -28 0 -16 12 -21 -32 4 -19 6 24 -9 -62 -8 9 22 2 -1 -2 0 6 1 -1 5 3 -1 3 1
-2 1 1 -7 -4 -4 -6 -8 5 14 20 14 7 2 -22 -16 -3 2 28 7 9 -5 -11 -34 69 1 -22 -45 -44 0 1 -4 -1 -1 -10 -3 5 9 9 2 -0 3 1 2
3 -1 -3 -26 9 4 7 -13 -4 -4 3 -18 -51 43 -51 36 23 17 36 24 0 3 -29 30 -1 -33 -23 -18 -30 0 -1 -16 14 2 1 -9 -4 0 8 5 5 3 2 2
-1 -10 -12 -9 11 -1 6 -1 4 11 11 -3 -8 12 -2 3 18 9 18 3 10 10 -29 4 -10 -35 -43 6 -14 6 -5 -1 -2 7 16 33 27 9 6 6 6 1 2 2
-2 7 -2 -13 3 7 5 4 25 18 23 22 18 13 8 6 23 23 17 3 -0 -15 13 3 -19 -50 6 1 -3 12 10 -3 -4 -5 -10 -4 -1 3 8 7 0 5 4 4
-5 1 -10 0 3 4 8 0 2 0 -1 5 -5 -9 11 15 10 12 5 4 -10 8 5 -21 -19 -3 -2 7 3 7 6 -3 9 5 14 10 4 12 5 3 0 5 6 2
-0 -2 0 3 5 3 -1 -0 0 -1 -7 -4 3 4 17 8 5 3 5 -6 5 4 -6 -21 -4 7 -21 8 17 -2 5 7 7 8 16 13 8 13 12 11 3 -0 2 -1
6 4 -4 -5 2 -1 -2 -1 -2 4 -4 -3 -4 -1 5 16 -1 -0 3 -4 -1 -1 -11 -2 -1 -1 -1 -6 17 -2 3 8 9 10 12 18 15 7 8 14 -2 -6 -7 -0
3 -0 -1 3 -6 2 5 8 7 7 -3 -1 5 -3 17 11 -1 2 2 8 -1 -1 8 -8 -12 1 -2 7 11 11 12 20 25 26 20 13 7 5 -1 2 -9 -2 1 -1
5 1 7 3 0 -6 -8 0 6 4 -5 2 9 10 3 11 5 0 7 3 3 -5 -5 -3 -2 2 7 12 22 30 32 17 11 7 4 -1 2 -4 -1 -4 -2 -0 -1 -0
Height
3115 3112 3109 3107 3105 3106 3106 3104 3102 3101 3102 3104 3100 3097 3097 3097 3097 3097 3095 3092 3089 3086 3086 3082 3079 3077 3074 3074 3073 3072 3072 3071 3067 3064 3063 3062 3062 3061 3062 3062 3059 3057 3054 3048
3107 3105 3102 3100 3097 3094 3095 3094 3092 3093 3094 3091 3090 3090 3089 3089 3089 3089 3088 3086 3084 3082 3082 3081 3076 3074 3072 3070 3069 3068 3069 3069 3066 3062 3062 3059 3058 3058 3058 3057 3056 3052 3056 3047
3100 3098 3095 3093 3091 3089 3088 3087 3085 3082 3083 3085 3084 3085 3083 3083 3083 3082 3080 3079 3079 3078 3077 3076 3073 3070 3069 3068 3066 3064 3064 3063 3063 3062 3059 3058 3055 3054 3054 3053 3052 3047 3046 3044
3093 3091 3088 3086 3084 3082 3082 3080 3079 3077 3077 3079 3078 3078 3076 3077 3077 3077 3076 3073 3075 3074 3071 3070 3067 3067 3064 3063 3062 3061 3060 3056 3056 3055 3054 3053 3050 3048 3048 3046 3044 3044 3041 3039
3087 3085 3082 3080 3077 3076 3075 3075 3072 3070 3068 3070 3071 3071 3070 3071 3072 3074 3071 3068 3071 3069 3067 3067 3066 3062 3060 3058 3057 3055 3055 3052 3050 3047 3047 3046 3043 3041 3040 3038 3037 3035 3035 3033
3081 3078 3077 3074 3071 3069 3069 3068 3065 3062 3056 3058 3060 3061 3062 3060 3063 3062 3064 3064 3059 3059 3060 3059 3057 3056 3054 3053 3052 3051 3050 3050 3049 3043 3042 3041 3038 3033 3033 3032 3031 3030 3029 3031
3076 3072 3071 3069 3066 3064 3061 3060 3058 3056 3047 3048 3049 3049 3051 3049 3053 3048 3049 3050 3052 3053 3051 3049 3047 3046 3045 3044 3044 3044 3043 3044 3045 3042 3041 3039 3030 3029 3029 3028 3028 3026 3026 3027
3069 3066 3065 3063 3061 3059 3056 3054 3051 3047 3039 3039 3037 3038 3037 3038 3038 3039 3039 3040 3043 3041 3043 3042 3040 3036 3035 3032 3033 3035 3036 3037 3038 3038 3036 3029 3025 3024 3025 3024 3024 3023 3023 3023
3064 3063 3059 3056 3053 3051 3048 3047 3045 3042 3034 3025 3029 3029 3028 3027 3025 3025 3026 3030 3035 3035 3033 3035 3029 3028 3028 3025 3021 3021 3024 3028 3031 3031 3030 3024 3018 3020 3020 3019 3018 3017 3018 3019
3055 3051 3047 3045 3044 3041 3039 3038 3038 3033 3025 3019 3022 3020 3020 3021 3021 3017 3019 3019 3019 3022 3020 3018 3017 3013 3020 3018 3016 3017 3014 3017 3017 3019 3020 3014 3014 3016 3015 3018 3019 3014 3015 3016
3046 3042 3039 3035 3032 3031 3029 3027 3029 3026 3017 3008 3012 3015 3012 3009 3010 3010 3011 3015 3013 3010 3010 3008 3006 3004 3004 3007 3008 3005 3008 3008 3006 3013 3013 3008 3008 3008 3010 3010 3009 3011 3011 3011
3036 3031 3028 3025 3023 3022 3021 3015 3018 3016 3007 2997 2998 2996 2996 2998 3002 3002 3003 3002 3007 3005 2999 2999 2999 2994 2995 2996 2993 2998 2998 2998 2999 2998 2991 2995 2999 3001 3004 3004 3005 3005 3005 3005
3025 3021 3019 3016 3014 3013 3012 3006 3006 3003 2995 2986 2981 2980 2988 2989 2989 2994 2987 2989 2996 2995 2995 2991 2990 2985 2986 2985 2985 2989 2986 2990 2990 2991 2987 2990 2992 2996 2997 2998 2999 3001 3001 3001
3016 3013 3010 3007 3004 3003 3000 2995 2997 2993 2984 2973 2961 2974 2972 2975 2978 2977 2977 2977 2985 2983 2986 2981 2979 2978 2976 2975 2977 2977 2981 2983 2981 2980 2979 2984 2986 2988 2990 2992 2994 2995 2996 2996
3006 3003 3000 2997 2994 2991 2987 2982 2981 2981 2979 2966 2956 2958 2955 2962 2962 2962 2964 2966 2969 2971 2971 2967 2963 2966 2972 2968 2966 2961 2970 2970 2971 2970 2975 2977 2980 2984 2985 2986 2988 2989 2991 2991
2996 2993 2989 2986 2982 2979 2973 2964 2966 2969 2966 2955 2943 2934 2934 2942 2950 2955 2957 2959 2959 2959 2960 2957 2951 2954 2961 2951 2951 2953 2958 2963 2965 2966 2969 2971 2973 2976 2978 2980 2981 2982 2984 2985
2985 2981 2978 2974 2970 2968 2963 2956 2955 2960 2959 2949 2932 2919 2916 2927 2931 2935 2939 2942 2942 2945 2946 2943 2941 2940 2947 2936 2933 2942 2949 2955 2955 2956 2960 2962 2965 2969 2971 2973 2974 2976 2977 2978
2973 2969 2964 2960 2957 2952 2944 2946 2942 2942 2939 2934 2915 2902 2907 2918 2915 2917 2920 2922 2926 2925 2923 2926 2925 2925 2927 2919 2919 2922 2931 2942 2944 2949 2952 2955 2960 2961 2963 2965 2967 2968 2969 2970
2962 2956 2951 2946 2945 2938 2931 2929 2927 2926 2925 2914 2901 2897 2888 2893 2895 2902 2901 2906 2906 2907 2905 2905 2912 2906 2899 2902 2907 2912 2919 2926 2931 2940 2945 2948 2949 2951 2954 2957 2959 2960 2961 2962
2951 2946 2940 2933 2935 2927 2921 2911 2907 2901 2898 2894 2882 2890 2878 2890 2888 2887 2893 2890 2893 2892 2892 2894 2889 2885 2887 2892 2893 2897 2904 2916 2923 2925 2931 2936 2939 2942 2946 2948 2951 2953 2954 2955
2942 2935 2929 2926 2920 2910 2903 2896 2892 2887 2883 2879 2876 2877 2874 2873 2872 2875 2879 2881 2883 2881 2880 2881 2874 2870 2869 2874 2874 2881 2893 2903 2908 2914 2922 2928 2932 2935 2937 2939 2942 2944 2946 2948
2935 2929 2920 2914 2905 2899 2896 2889 2884 2880 2879 2876 2875 2873 2870 2866 2867 2869 2870 2872 2876 2873 2871 2870 2861 2852 2857 2859 2856 2861 2877 2890 2897 2904 2910 2915 2919 2924 2928 2932 2934 2937 2939 2941
2928 2923 2915 2910 2902 2896 2891 2884 2880 2877 2874 2873 2871 2868 2866 2862 2863 2865 2866 2866 2865 2864 2861 2853 2845 2848 2845 2846 2851 2857 2870 2879 2885 2891 2898 2904 2909 2915 2919 2922 2925 2929 2932 2936
2921 2916 2910 2906 2896 2891 2886 2883 2880 2876 2871 2868 2866 2864 2864 2860 2859 2861 2860 2861 2859 2854 2850 2843 2846 2844 2847 2844 2847 2851 2858 2867 2874 2880 2887 2894 2899 2904 2908 2911 2917 2923 2929 2933
2914 2911 2903 2895 2890 2887 2884 2879 2873 2869 2865 2862 2859 2858 2858 2856 2857 2856 2855 2855 2851 2848 2844 2841 2841 2840 2841 2841 2842 2849 2854 2861 2868 2875 2882 2887 2891 2896 2901 2907 2913 2920 2925 2931
2905 2900 2893 2889 2884 2880 2876 2871 2864 2861 2858 2856 2856 2855 2852 2850 2851 2850 2849 2848 2845 2843 2840 2838 2837 2836 2837 2836 2839 2844 2850 2856 2863 2870 2875 2881 2886 2893 2901 2906 2913 2921 2925 2928
2896 2891 2888 2883 2878 2872 2865 2861 2857 2854 2852 2851 2853 2851 2848 2846 2846 2846 2845 2844 2842 2840 2839 2837 2835 2832 2834 2836 2839 2843 2849 2854 2860 2867 2875 2882 2889 2897 2904 2911 2916 2920 2923 2925